Location: Sungai Anya
(2.6167°N, 114.0500°E)
Time: 18:25:38
(UTC+00:00)

Iridium 4 Rocket - Pass Details

Date: 19 October 2021
Orbit: 586 x 903 km, 86.9° (Epoch: 07 December)

Event Time Altitude Azimuth Distance (km) Brightness Sun altitude
Rises 10:48:01 0° 14° (NNE) 3,109 6.4 -10.1°
Reaches altitude 10° 10:50:20 10° 22° (NNE) 2,240 5.6 -10.7°
Maximum altitude 10:55:04 42° 92° (E) 1,118 3.9 -11.9°
Drops below altitude 10° 11:00:12 10° 161° (SSE) 2,439 6.0 -13.1°
Sets 11:02:48 0° 168° (SSE) 3,417 6.8 -13.8°
